Miscellaneous Local Product
Issued by NWS Hastings, NE

Home | Current Version | Previous Version | Graphics & Text | Print | Product List | Glossary On
Versions: 1 2 3 4 5 6 7 8 9 10 11 12 13 14 15 16 17 18 19 20 21 22 23 24 25 26 27 28 29 30 31 32 33 34 35 36 37 38 39 40 41 42 43 44 45 46 47 48 49 50
000
AXUS43 KGID 201802
MISGRI

GID CWA HOURLY WEATHER ROUNDUP
NATIONAL WEATHER SERVICE HASTINGS NE
100 PM CDT SUN MAY 20 2018

NOTE: "FAIR" INDICATES FEW OR NO CLOUDS BELOW 12,000 FEET WITH NO
SIGNIFICANT WEATHER AND/OR OBSTRUCTIONS TO VISIBILITY.

...SOUTH CENTRAL NEBRASKA...

CITY           SKY/WX    TMP DP  RH WIND       PRES   REMARKS
GRAND ISLAND   CLOUDY    56  53  90 N14       30.16F
KEARNEY        CLOUDY    55  52  89 N12       30.17S
HASTINGS       CLOUDY    56  53  90 NE14      30.15F
ORD            CLOUDY    52  50  93 N12       30.17F
YORK           CLOUDY    54  54 100 NE15      30.14F
AURORA         CLOUDY    54  54 100 N13       30.15S FOG
LEXINGTON      CLOUDY    58  50  75 N13       30.18F
HOLDREGE       CLOUDY    55  53  93 N12       30.16F
HEBRON         LGT RAIN  57  56  95 N9        30.12S

...NEBRASKA PANHANDLE...

CITY           SKY/WX    TMP DP  RH WIND       PRES   REMARKS
CHADRON        CLOUDY    55  36  48 VRB3      30.23F
ALLIANCE       MOSUNNY   56  37  49 VRB3      30.21F
SCOTTSBLUFF    SUNNY     56  40  55 VRB3      30.22F
SIDNEY         SUNNY     57  38  48 NE7       30.23F

...WESTERN AND NORTH CENTRAL NEBRASKA...

CITY           SKY/WX    TMP DP  RH WIND       PRES   REMARKS
VALENTINE      CLOUDY    58  35  42 NE9       30.22F
AINSWORTH      CLOUDY    57  43  59 N8        30.21F
ONEILL         CLOUDY    55  47  74 N9        30.21F
BROKEN BOW     CLOUDY    57  48  72 N10       30.18F
IMPERIAL       CLOUDY    57  43  59 N12       30.21F
NORTH PLATTE   CLOUDY    58  45  62 NE10      30.20F
MCCOOK         CLOUDY    54  50  86 N12       30.19F

...EASTERN NEBRASKA...

CITY           SKY/WX    TMP DP  RH WIND       PRES   REMARKS
NORFOLK        CLOUDY    53  50  89 N10       30.16F
SO SIOUX CITY  CLOUDY    55  48  77 NE8       30.17F
TEKAMAH        CLOUDY    55  52  89 NE12      30.15F
COLUMBUS       CLOUDY    54  51  90 N13       30.16F
ALBION         CLOUDY    55  51  88 NE9       30.18S
OMAHA EPPLEY   CLOUDY    58  54  86 N12       30.13S
OFFUTT AFB     CLOUDY    58  56  92 N7        30.11F
MILLARD        LGT RAIN  57  54  89 N5        30.13S
LINCOLN        RAIN      56  53  90 NE12      30.14R FOG
NEBRASKA CITY  CLOUDY    63  59  86 NE12      30.09F
BEATRICE       CLOUDY    60  59  95 N10       30.10F FOG
FALLS CITY     CLOUDY    69  61  75 N6        30.04F

...NORTHERN KANSAS...

CITY           SKY/WX    TMP DP  RH WIND       PRES   REMARKS
GOODLAND       CLOUDY    58  45  62 NE14      30.20F
HILL CITY      CLOUDY    58  51  78 N9        30.16F
NORTON         CLOUDY    55  52  88 N12       30.17S
PHILLIPSBURG   CLOUDY    61  52  72 NW8       30.15S
SMITH CENTER     N/A     59  54  82 N9        30.13F
HAYS           CLOUDY    59  51  75 NW12      30.15S
RUSSELL        CLOUDY    62  54  74 N9        30.12F
CONCORDIA      CLOUDY    58  56  93 N7        30.11R FOG
SALINA         CLOUDY    63  56  78 NW10      30.11S
TOPEKA         RAIN      69  68  96 SE10      30.05S



USA.gov is the U.S. government's official web portal to all federal, state and local government web resources and services.